Charlevoix, MI

12:31 AM EDT on August 25, 2016 (GMT -0400)
Charlevoix Municipal

Weather History for KCVX - February, 2013

Change the Weather History Date:

Friday, February 8, 2013

  Actual Average Record
Temperature  
Mean Temperature 13 °F -  
Max Temperature 22 °F 28 °F 39 °F (2002)
Min Temperature 4 °F 16 °F -2 °F (2004)
Degree Days  
Heating Degree Days 52    
Moisture  
Dew Point 14 °F    
Average Humidity 82    
Maximum Humidity 91    
Minimum Humidity 68    
Precipitation  
Precipitation 0.00 in - - ()
Sea Level Pressure  
Sea Level Pressure 30.26 in    
Wind  
Wind Speed 10 mph (NNE)    
Max Wind Speed 14 mph    
Max Gust Speed 21 mph    
Visibility 9 miles    
Events Snow    
Averages and records for this station are not official NWS values.
T = Trace of Precipitation, MM = Missing Value Source: NWS Daily Summary

Daily Weather History Graph

Daily Weather History Graph

Search for Another Location

Airport or City:

Trip Planner

Search our weather history database for the weather conditions in past years. The results will help you decide how hot, cold, wet, or windy it might be!

Date:

Astronomy

Feb. 08, 2013 Rise Set
Actual Time 7:52 AM EST 5:58 PM EST
Civil Twilight 7:21 AM EST 6:29 PM EST
Nautical Twilight 6:46 AM EST 7:04 PM EST
Astronomical Twilight 6:12 AM EST 7:39 PM EST
Moon 6:22 AM EST (2/8) 4:29 PM EST (2/8)
Length of Visible Light 11h 08m
Length of Day
10h 06m
Waning Crescent, 3% of the Moon is Illuminated
Feb 8
Waning Crescent
Feb 10
New
Feb 17
First Quarter
Feb 25
Full
Mar 4
Last Quarter

Hourly Weather History & Observations

Time (EST) Temp. Windchill Dew Point Humidity Pressure Visibility Wind Dir Wind Speed Gust Speed Precip Events Conditions
12:15 AM 21.7 °F 10.8 °F 19.4 °F 91% 30.10 in 4.0 mi NE 10.4 mph 19.6 mph N/A Snow Light Snow
12:34 AM 22.1 °F 11.3 °F 19.4 °F 89% 30.11 in 3.0 mi NE 10.4 mph 16.1 mph N/A Snow Light Snow
12:55 AM 22.1 °F 10.6 °F 19.4 °F 89% 30.11 in 4.0 mi NE 11.5 mph 20.7 mph N/A Snow Light Snow
1:15 AM 22.1 °F 12.0 °F 19.4 °F 89% 30.11 in 4.0 mi NE 9.2 mph 18.4 mph N/A Snow Light Snow
1:34 AM 21.9 °F 10.4 °F 19.2 °F 89% 30.11 in 5.0 mi NE 11.5 mph 16.1 mph N/A Snow Light Snow
1:55 AM 21.7 °F 10.2 °F 18.5 °F 87% 30.11 in 10.0 mi NE 11.5 mph 18.4 mph N/A   Overcast
2:14 AM 21.6 °F 10.6 °F 18.5 °F 88% 30.11 in 5.0 mi NE 10.4 mph 17.3 mph N/A Snow Light Snow
2:35 AM 21.2 °F 10.1 °F 18.1 °F 88% 30.11 in 7.0 mi NE 10.4 mph - N/A Snow Light Snow
2:55 AM 21.2 °F 9.5 °F 18.1 °F 88% 30.12 in 7.0 mi NE 11.5 mph - N/A Snow Light Snow
3:14 AM 21.2 °F 9.5 °F 18.0 °F 87% 30.12 in 10.0 mi NE 11.5 mph 17.3 mph N/A   Overcast
3:35 AM 21.2 °F 8.9 °F 18.1 °F 88% 30.12 in 10.0 mi NE 12.7 mph - N/A   Overcast
3:55 AM 21.2 °F 9.5 °F 18.3 °F 89% 30.13 in 10.0 mi NE 11.5 mph 18.4 mph N/A   Overcast
4:35 AM 20.7 °F 9.5 °F 18.3 °F 91% 30.14 in 10.0 mi NE 10.4 mph - N/A   Overcast
4:54 AM 20.3 °F 11.5 °F 18.1 °F 91% 30.14 in 10.0 mi NE 6.9 mph - N/A   Overcast
5:15 AM 19.9 °F 7.9 °F 17.4 °F 90% 30.16 in 10.0 mi NNE 11.5 mph 17.3 mph N/A   Overcast
5:34 AM 19.9 °F 7.9 °F 16.9 °F 88% 30.16 in 10.0 mi NE 11.5 mph 16.1 mph N/A   Overcast
5:54 AM 19.8 °F 8.3 °F 16.7 °F 88% 30.17 in 10.0 mi NE 10.4 mph - N/A   Overcast
6:15 AM 19.6 °F 7.4 °F 16.5 °F 88% 30.18 in 10.0 mi NNE 11.5 mph - N/A   Overcast
6:34 AM 19.2 °F 6.4 °F 16.7 °F 90% 30.18 in 10.0 mi NNE 12.7 mph - N/A   Overcast
6:54 AM 18.3 °F 4.6 °F 15.8 °F 90% 30.19 in 10.0 mi North 13.8 mph 18.4 mph N/A   Overcast
7:14 AM 18.1 °F 5.6 °F 15.4 °F 89% 30.20 in 10.0 mi North 11.5 mph - N/A Snow Light Snow
7:34 AM 18.1 °F 6.3 °F 15.4 °F 89% 30.21 in 10.0 mi NNE 10.4 mph - N/A Snow Light Snow
7:54 AM 18.1 °F 6.3 °F 14.9 °F 87% 30.21 in 10.0 mi North 10.4 mph - N/A Snow Light Snow
8:15 AM 18.0 °F 7.7 °F 14.7 °F 87% 30.22 in 10.0 mi NNE 8.1 mph - N/A Snow Light Snow
8:35 AM 18.1 °F 7.1 °F 14.9 °F 87% 30.23 in 10.0 mi NNE 9.2 mph - N/A Snow Light Snow
8:54 AM 18.3 °F 5.2 °F 14.9 °F 86% 30.24 in 10.0 mi North 12.7 mph - N/A Snow Light Snow
9:15 AM 18.3 °F 6.6 °F 14.5 °F 85% 30.25 in 10.0 mi NNE 10.4 mph - N/A Snow Light Snow
9:35 AM 18.3 °F 5.2 °F 14.5 °F 85% 30.25 in 10.0 mi North 12.7 mph - N/A Snow Light Snow
9:54 AM 18.5 °F 6.8 °F 14.4 °F 84% 30.26 in 10.0 mi NNE 10.4 mph - N/A Snow Light Snow
10:15 AM 18.5 °F 5.5 °F 14.0 °F 83% 30.27 in 10.0 mi NNE 12.7 mph - N/A   Scattered Clouds
10:35 AM 19.0 °F 6.1 °F 14.4 °F 82% 30.28 in 10.0 mi NNE 12.7 mph - N/A   Mostly Cloudy
10:55 AM 19.4 °F 7.9 °F 13.6 °F 78% 30.28 in 10.0 mi NNE 10.4 mph - N/A   Mostly Cloudy
11:15 AM 19.4 °F 6.6 °F 13.1 °F 76% 30.29 in 10.0 mi NNE 12.7 mph - N/A   Clear
11:55 AM 19.9 °F 10.1 °F 14.0 °F 78% 30.30 in 10.0 mi NNE 8.1 mph - N/A   Clear
12:15 PM 19.9 °F 9.3 °F 14.9 °F 81% 30.29 in 10.0 mi NNE 9.2 mph - N/A   Mostly Cloudy
12:34 PM 20.3 °F 10.6 °F 14.9 °F 80% 30.29 in 10.0 mi North 8.1 mph - N/A   Overcast
12:55 PM 20.5 °F 10.0 °F 14.9 °F 79% 30.28 in 10.0 mi North 9.2 mph - N/A   Scattered Clouds
1:15 PM 20.8 °F 10.4 °F 15.1 °F 78% 30.28 in 10.0 mi North 9.2 mph - N/A   Scattered Clouds
1:35 PM 21.2 °F 11.7 °F 15.3 °F 78% 30.28 in 10.0 mi North 8.1 mph - N/A   Scattered Clouds
1:55 PM 20.7 °F 11.0 °F 14.9 °F 78% 30.29 in 10.0 mi North 8.1 mph - N/A   Scattered Clouds
2:14 PM 21.6 °F 11.3 °F 15.1 °F 76% 30.29 in 10.0 mi North 9.2 mph - N/A   Clear
2:35 PM 21.9 °F 12.5 °F 14.9 °F 74% 30.29 in 10.0 mi North 8.1 mph - N/A   Clear
2:55 PM 21.9 °F 11.7 °F 14.7 °F 74% 30.30 in 10.0 mi North 9.2 mph 17.3 mph N/A   Clear
3:14 PM 21.7 °F 10.2 °F 14.5 °F 74% 30.30 in 10.0 mi North 11.5 mph - N/A   Clear
3:35 PM 21.9 °F 10.4 °F 14.5 °F 73% 30.31 in 10.0 mi North 11.5 mph - N/A   Clear
3:55 PM 21.7 °F 10.8 °F 14.5 °F 74% 30.32 in 10.0 mi North 10.4 mph - N/A   Clear
4:14 PM 22.1 °F 10.6 °F 14.7 °F 73% 30.32 in 10.0 mi North 11.5 mph - N/A   Clear
4:35 PM 22.1 °F 10.6 °F 14.0 °F 71% 30.32 in 10.0 mi North 11.5 mph - N/A   Clear
4:55 PM 22.1 °F 12.0 °F 14.5 °F 73% 30.32 in 10.0 mi North 9.2 mph - N/A   Clear
5:14 PM 22.1 °F 11.3 °F 14.2 °F 72% 30.33 in 10.0 mi North 10.4 mph - N/A   Clear
5:35 PM 22.1 °F 12.8 °F 13.8 °F 70% 30.34 in 10.0 mi North 8.1 mph - N/A   Clear
5:55 PM 21.9 °F 12.5 °F 13.6 °F 70% 30.34 in 10.0 mi North 8.1 mph - N/A   Clear
6:34 PM 20.8 °F 12.1 °F 12.9 °F 71% 30.35 in 10.0 mi NNE 6.9 mph - N/A   Clear
6:55 PM 20.5 °F 10.8 °F 12.9 °F 73% 30.36 in 10.0 mi NNE 8.1 mph - N/A   Clear
7:12 PM 20.3 °F 10.6 °F 12.6 °F 72% 30.36 in 10.0 mi NNE 8.1 mph - N/A   Clear
7:35 PM 20.1 °F 8.8 °F 12.2 °F 71% 30.36 in 10.0 mi NNE 10.4 mph - N/A   Clear
7:54 PM 19.9 °F 8.6 °F 10.9 °F 68% 30.36 in 10.0 mi NNE 10.4 mph 16.1 mph N/A   Clear
8:15 PM 19.6 °F 9.7 °F 10.4 °F 68% 30.37 in 10.0 mi NNE 8.1 mph - N/A   Clear
8:34 PM 18.9 °F 8.8 °F 10.0 °F 69% 30.37 in 10.0 mi NE 8.1 mph - N/A   Clear
8:55 PM 18.1 °F 10.0 °F 9.9 °F 70% 30.37 in 10.0 mi NE 5.8 mph - N/A   Clear
9:15 PM 16.5 °F - 9.3 °F 73% 30.38 in 10.0 mi Calm Calm - N/A   Clear
9:34 PM 16.2 °F 9.0 °F 9.7 °F 76% 30.38 in 10.0 mi NE 4.6 mph - N/A   Clear
9:55 PM 12.6 °F - 8.4 °F 83% 30.39 in 10.0 mi Calm Calm - N/A   Clear
10:15 PM 9.7 °F 3.2 °F 6.4 °F 87% 30.39 in 10.0 mi East 3.5 mph - N/A   Clear
10:34 PM 9.0 °F - 6.1 °F 88% 30.39 in 10.0 mi Calm Calm - N/A   Clear
10:55 PM 5.9 °F - 3.2 °F 89% 30.39 in 10.0 mi Calm Calm - N/A   Clear
11:14 PM 5.7 °F -1.3 °F 3.4 °F 90% 30.39 in 7.0 mi SE 3.5 mph - N/A   Clear
11:35 PM 4.3 °F -2.9 °F 1.9 °F 90% 30.39 in 10.0 mi SE 3.5 mph - N/A   Clear
11:55 PM 4.5 °F -2.7 °F 2.3 °F 91% 30.39 in 10.0 mi SE 3.5 mph - N/A   Clear